Weather History for Shelton, WA

Change the Weather History Date:

Monday, May 6, 2013

  Actual Average Record
Temperature  
Mean Temperature 62 °F -  
Max Temperature 82 °F 65 °F 84 °F (1957)
Min Temperature 43 °F 43 °F 30 °F (1965)
Degree Days  
Heating Degree Days 2    
Growing Degree Days 12 (Base 50)    
Moisture  
Dew Point 46 °F    
Average Humidity 64    
Maximum Humidity 93    
Minimum Humidity 33    
Precipitation  
Precipitation 0.00 in - - ()
Sea Level Pressure  
Sea Level Pressure 29.81 in    
Wind  
Wind Speed 5 mph (WSW)    
Max Wind Speed 20 mph    
Max Gust Speed 25 mph    
Visibility 10 miles    
Events      
Averages and records for this station are not official NWS values.
T = Trace of Precipitation, MM = Missing Value Source: NWS Daily Summary

Daily Weather History Graph

Daily Weather History Graph

Search for Another Location

Airport:

Trip Planner

Search our weather history database for the weather conditions in past years. The results will help you decide how hot, cold, wet, or windy it might be!

Date:

Astronomy

May. 06, 2013 Rise Set
Actual Time 5:48 AM PDT 8:30 PM PDT
Civil Twilight 5:13 AM PDT 9:06 PM PDT
Nautical Twilight 4:29 AM PDT 9:50 PM PDT
Astronomical Twilight 3:37 AM PDT 10:42 PM PDT
Moon 4:05 AM PDT (5/6) 5:26 PM PDT (5/6)
Length of Visible Light 15h 52m
Length of Day
14h 42m
Waning Crescent, 10% of the Moon is Illuminated
May 6
Waning Crescent
May 9
New
May 17
First Quarter
May 24
Full
May 31
Last Quarter

Hourly Weather History & Observations

Time (PDT) Temp. Dew Point Humidity Pressure Visibility Wind Dir Wind Speed Gust Speed Precip Events Conditions
12:53 AM 48.0 °F 45.0 °F 89% 29.81 in 10.0 mi SW 4.6 mph - N/A   Clear
1:53 AM 46.9 °F 43.0 °F 86% 29.82 in 10.0 mi Calm Calm - N/A   Clear
2:53 AM 44.1 °F 41.0 °F 89% 29.81 in 10.0 mi Calm Calm - N/A   Clear
3:53 AM 44.1 °F 42.1 °F 93% 29.81 in 10.0 mi Calm Calm - N/A   Clear
4:53 AM 45.0 °F 39.9 °F 82% 29.81 in 10.0 mi Calm Calm - N/A   Clear
5:53 AM 43.0 °F 39.9 °F 89% 29.83 in 10.0 mi Calm Calm - N/A   Clear
6:53 AM 46.9 °F 42.1 °F 83% 29.83 in 10.0 mi Calm Calm - N/A   Clear
7:53 AM 57.0 °F 46.0 °F 67% 29.84 in 10.0 mi Calm Calm - N/A   Clear
8:53 AM 64.0 °F 43.0 °F 46% 29.84 in 10.0 mi Calm Calm - N/A   Clear
9:53 AM 69.1 °F 44.1 °F 40% 29.84 in 10.0 mi WSW 5.8 mph - N/A   Clear
10:53 AM 73.0 °F 46.0 °F 38% 29.84 in 10.0 mi WSW 4.6 mph - N/A   Clear
11:53 AM 75.0 °F 46.9 °F 37% 29.83 in 9.0 mi Calm Calm - N/A   Clear
12:53 PM 78.1 °F 46.9 °F 33% 29.82 in 10.0 mi NW 3.5 mph - N/A   Clear
1:53 PM 81.0 °F 50.0 °F 34% 29.81 in 10.0 mi SW 8.1 mph - N/A   Clear
2:53 PM 82.0 °F 51.1 °F 34% 29.80 in 10.0 mi SW 12.7 mph - N/A   Clear
3:53 PM 80.1 °F 52.0 °F 38% 29.78 in 10.0 mi WSW 15.0 mph - N/A   Clear
4:53 PM 75.9 °F 51.1 °F 42% 29.78 in 10.0 mi WSW 17.3 mph - N/A   Clear
5:53 PM 72.0 °F 50.0 °F 46% 29.78 in 10.0 mi WSW 16.1 mph 25.3 mph N/A   Clear
6:53 PM 68.0 °F 48.9 °F 50% 29.78 in 10.0 mi WSW 19.6 mph - N/A   Clear
7:53 PM 63.0 °F 48.9 °F 60% 29.78 in 10.0 mi WSW 12.7 mph - N/A   Clear
8:53 PM 59.0 °F 48.9 °F 69% 29.79 in 10.0 mi WSW 15.0 mph - N/A   Clear
9:53 PM 55.0 °F 48.9 °F 80% 29.81 in 10.0 mi WSW 10.4 mph 19.6 mph N/A   Clear
10:53 PM 51.1 °F 48.0 °F 89% 29.83 in 10.0 mi WSW 10.4 mph - N/A   Partly Cloudy
11:11 PM 51.8 °F 48.2 °F 88% 29.83 in 9.0 mi WSW 12.7 mph - N/A   Mostly Cloudy
11:53 PM 51.1 °F 48.9 °F 92% 29.85 in 9.0 mi WSW 15.0 mph 20.7 mph N/A   Overcast